Location: Copeville
(33.0796°N, 96.4155°W)
Time: 20:35:00
(UTC+00:00)

ISS - Visible Passes

Search period start: 09 December 2022 00:00
Search period end: 19 December 2022 00:00
Orbit: 414 x 420 km, 51.6° (Epoch: 09 December)

Date Brightness Start Highest point End Pass type
(mag) Time Alt. Az. Time Alt. Az. Time Alt. Az.
10 Dec -0.3 00:43:25 10° WSW 00:44:37 12° SW 00:45:48 10° SSW visible
10 Dec -0.8 23:53:53 10° WNW 23:56:32 22° SW 23:59:09 10° S visible
14 Dec -0.1 12:33:27 10° SSE 12:34:48 12° SE 12:36:08 10° ESE visible
16 Dec -2.3 12:31:16 10° SSW 12:34:25 40° SE 12:37:36 10° ENE visible
17 Dec -1.1 11:43:30 10° S 11:46:05 21° SE 11:48:40 10° ENE visible
18 Dec -0.4 10:56:53 10° SE 10:57:46 11° SE 10:58:41 10° ESE visible
18 Dec -3.6 12:30:51 10° WSW 12:34:08 52° NW 12:37:25 10° NE visible
